Location: Newark
(47.8150°N, 3.6269°W)
Time: 04:22:57
(UTC+00:00)

Envisat - Visible Passes

Search period start: 22 November 2019 00:00
Search period end: 02 December 2019 00:00
Orbit: 764 x 766 km, 98.1° (Epoch: 21 November)

Date Brightness Start Highest point End Pass type
(mag) Time Alt. Az. Time Alt. Az. Time Alt. Az.
22 Nov 6.0 05:50:58 10° NE 05:54:03 16° E 05:57:07 10° SE visible
22 Nov 3.7 17:08:23 10° SE 17:12:45 30° ENE 17:17:09 10° N visible
22 Nov 4.3 18:46:52 10° SSW 18:51:38 41° W 18:56:27 10° NNW visible
23 Nov 4.0 06:51:51 10° NNE 06:56:51 54° E 07:01:48 10° S visible
23 Nov 3.0 18:09:41 10° SSE 18:14:46 85° WSW 18:19:53 10° NNW visible
23 Nov 6.1 19:52:41 10° WSW 19:54:34 12° W 19:56:28 10° WNW visible
24 Nov 5.4 06:15:34 10° NE 06:19:50 26° E 06:24:04 10° SSE visible
24 Nov 3.2 17:33:13 10° SE 17:38:04 48° ENE 17:42:58 10° N visible
24 Nov 5.2 19:13:11 10° SSW 19:17:20 25° W 19:21:31 10° NW visible
25 Nov 6.2 05:40:25 10° ENE 05:42:37 13° E 05:44:49 10° ESE visible
25 Nov 4.0 16:57:30 10° ESE 17:01:35 25° ENE 17:05:41 10° N visible
25 Nov 3.9 18:35:23 10° S 18:40:19 51° W 18:45:17 10° NNW visible
26 Nov 4.4 06:40:40 10° NNE 06:45:32 43° E 06:50:21 10° S visible
26 Nov 2.9 17:58:26 10° SSE 18:03:29 79° ENE 18:08:36 10° NNW visible
26 Nov 5.9 19:40:15 10° WSW 19:43:08 15° W 19:46:02 10° NW visible
27 Nov 5.7 06:04:35 10° NE 06:08:27 21° E 06:12:17 10° SE visible
27 Nov 3.4 17:22:10 10° SE 17:26:52 39° ENE 17:31:35 10° N visible
27 Nov 4.8 19:01:31 10° SSW 19:05:58 31° W 19:10:28 10° NNW visible
28 Nov 3.4 18:23:59 10° S 18:29:00 63° WSW 18:34:04 10° NNW visible
29 Nov 4.8 06:29:31 10° NNE 06:34:11 35° E 06:38:48 10° SSE visible
29 Nov 2.9 17:47:14 10° SSE 17:52:14 64° ENE 17:57:17 10° N visible
29 Nov 5.6 19:28:12 10° SW 19:31:43 19° W 19:35:16 10° NW visible
30 Nov 5.9 05:53:43 10° NE 05:57:03 17° E 06:00:22 10° SE visible
30 Nov 3.7 17:11:12 10° SE 17:15:40 32° ENE 17:20:10 10° N visible
30 Nov 4.4 18:49:55 10° SSW 18:54:37 38° W 18:59:21 10° NNW visible
01 Dec 3.8 06:54:46 10° NNE 06:59:48 58° E 07:04:48 10° S visible
01 Dec 3.1 18:12:38 10° S 18:17:43 78° WSW 18:22:49 10° NNW visible
01 Dec 6.2 19:56:19 10° W 19:57:35 11° W 19:58:50 10° WNW visible
